Find Taijing-1 03

NORAD ID: 58820 Int'l Des: NNA 2024-016 Owner: WEINA Country: CN operational
LEOCIRCULARRETROGRADESSO

現在のビュー

3D地球を読み込み中...

About Taijing-1 03

Taijing-1 03 (NORAD 58820) is a satellite launched Jan 23, 2024 by WEINA of CN. It operates in LEO, CIRCULAR, RETROGRADE, SSO orbit with a mass of 70.00 kg.

次回通過

Passes for default location (London). Set your location on the main map for personalized predictions.

高度履歴

Loading altitude history...

軌道要素

1 58820U 24016A 26163.88266260 .00033319 00000-0 50190-3 0 9999
2 58820 97.4487 259.0148 0006657 75.5179 284.6812 15.54717561133405
Epoch: Jun 12, 2026 • Age: 6 hours

現在のステータス

高度 409.8 km
速度 7.67 km/s
衛星直下点 65.44°N, 73.41°W
打ち上げ日 Jan 23, 2024
運用期間 2.3 years
タイプ other

技術仕様

分類 Payload
質量 70.00 kg
乾燥質量 70.00 kg
総質量 70.00 kg
長さ 0.50 m
直径 0.20 m
スパン 0.50 m
形状 Box + 2 pan
製造者 WEINA
バスタイプ MN30
フェーズステータス In Orbit
所有者/国 WEINA/CN

Most Searched